Home   Weather   Turin   Past weeks
Flag for Italy

Past Weather in Turin, Italy — Yesterday and Last 2 Weeks

Now
50 °F

Clear.


Feels Like: 49 °F
Forecast: 57 / 38 °F
Wind: 3 mph from Southwest

Location: Torino / Bric Della Croce

Current Time: Feb 21, 2020 at 8:33:25 pm

Latest Report: Feb 21, 2020 at 6:55 pm


Visibility: 10 mi

Pressure: 30.21 "Hg

Humidity: 32%

Dew Point: 21 °F

Location of TurinLocation

Past Weather in Turin — Graph

°F

Turin Temperature Yesterday

Maximum temperature yesterday: 48 °F (at 3:55 pm)
Minimum temperature yesterday: 39 °F (at 5:55 am)
Average temperature yesterday: 43 °F

High & Low Weather Summary for the Past Weeks

 TemperatureHumidityPressure
High57 °F (Feb 10, 11:55 pm)100% (Feb 8, 1:55 am)30.36 "Hg (Feb 8, 1:55 am)
Low34 °F (Feb 14, 3:55 am)11% (Feb 12, 3:55 pm)29.74 "Hg (Feb 11, 3:55 am)
Average44 °F60%30.14 "Hg
* Reported Feb 6 6:55 pm — Feb 21 6:55 pm, Turin. Weather by CustomWeather, © 2020

Note: Actual official high and low records may vary slightly from our data, if they occured in-between our weather recording intervals... More about our weather records

Turin Weather History for the Previous 24 Hours

Scroll right to see more
 ConditionsComfort  
Time TempWeatherWind HumidityBarometerVisibility
6:55 pm
Fri, Feb 21
50 °FClear.3 mph32%30.21 "Hg10 mi
5:55 pm50 °FSunny.6 mph32%30.21 "Hg10 mi
4:55 pm52 °FSunny.2 mph32%30.18 "Hg10 mi
3:55 pm50 °FSunny.3 mph35%30.18 "Hg10 mi
2:55 pm48 °FSunny.No wind43%30.18 "Hg10 mi
1:55 pm46 °FSunny.3 mph46%30.18 "Hg10 mi
12:55 pm45 °FSunny.No wind61%30.18 "Hg10 mi
11:55 am45 °FSunny.3 mph57%30.18 "Hg10 mi
10:55 am43 °FSunny.2 mph61%30.18 "Hg10 mi
9:55 am41 °FSunny.6 mph61%30.15 "Hg10 mi
8:55 am41 °FSunny.5 mph61%30.15 "Hg10 mi
7:55 am39 °FSunny.5 mph61%30.12 "Hg10 mi
6:55 am41 °FClear.3 mph57%30.12 "Hg10 mi
5:55 am41 °FClear.No wind53%30.15 "Hg10 mi
4:55 am41 °FClear.No wind53%30.15 "Hg10 mi
3:55 am41 °FClear.No wind53%30.15 "Hg10 mi
2:55 am41 °FClear.5 mph53%30.15 "Hg10 mi
1:55 am41 °FClear.3 mph49%30.15 "Hg10 mi
12:55 am43 °FClear.5 mph42%30.15 "Hg10 mi
11:55 pm
Thu, Feb 20
43 °FClear.5 mph46%30.15 "Hg10 mi
10:55 pm43 °FClear.7 mph36%30.15 "Hg10 mi
9:55 pm43 °FClear.7 mph36%30.15 "Hg10 mi
8:55 pm43 °FClear.5 mph36%30.15 "Hg10 mi
Weather by CustomWeather, © 2020

See weather overview

Advertising